Regional Weather Roundup
Issued by NWS

Home | Current Version | Previous Version | Text Only | Print | Product List | Glossary On
Versions: 1 2 3 4 5 6 7 8 9 10 11 12 13 14 15 16 17 18 19 20 21 22 23 24 25 26 27 28 29 30 31 32 33 34 35 36 37 38 39 40 41 42 43 44 45 46 47 48 49 50
394
ASCA44 KEWX 102220
RWRMX

LATIN AMERICA AND CARIBBEAN REGIONAL WEATHER ROUNDUP
NATIONAL WEATHER SERVICE AUSTIN/SAN ANTONIO TX
400 PM CST WED FEB 10 2016

NOTE: "FAIR" INDICATED FEW OR NO CLOUDS BELOW 12,000 FEET WITH NO
SIGNIFICANT WEATHER AND/OR OBSTRUCTIONS TO VISIBILITY.

BAJA CALIFORNIA

CITY           SKY/WX    TMP DP  RH WIND       PRES   REMARKS
LORETO         MOSUNNY   82  57  42 NE12      30.01F
LA PAZ         SUNNY     79  46  31 N16       30.03F
MEXICALI       PTSUNNY   82  25  12 NW5       30.13F
S.J. DEL CABO  SUNNY     86  52  30 SE10      30.01F
TIJUANA        MOSUNNY   82  27  13 W9        30.11F

NORTHWESTERN MEXICO

CITY           SKY/WX    TMP DP  RH WIND       PRES   REMARKS
CULIACAN       SUNNY     88  68  51 SW9       29.99F HX  91
DURANGO        MOSUNNY   68  27  21 NE6       30.32F
GUAYMAS        SUNNY     82  46  28 S10       29.98F
HERMOSILLO     SUNNY     93  21   7 CALM      30.06F
CD. JUAREZ     SUNNY     68  34  28 CALM      30.30S
LOS MOCHIS     SUNNY     86  50  28 W14       30.01F
OBREGON        SUNNY     86  50  28 W9        29.99F

NORTHEASTERN MEXICO

CITY           SKY/WX    TMP DP  RH WIND       PRES   REMARKS
CHIHUAHUA      SUNNY     73  19  13 SW5       30.28F
MATAMOROS      SUNNY     77  48  36 SE14      30.34F
MONCLOVA       SUNNY     77  21  12 E5        30.22F
MONTERREY      SUNNY     77  21  12 SE18      30.23F
NUEVO LAREDO   SUNNY     82  36  18 SE12      30.27F
PIEDRAS NEGRAS   N/A    N/A N/A N/A MISG        N/A
REYNOSA        SUNNY     77  23  13 SE12      30.26F
SALTILLO       SUNNY     70  37  30 N12       30.35F
TORREON        SUNNY     73  36  25 E7        30.28F
CD. VICTORIA   SUNNY     79  27  14 S16       30.27F

WESTERN MEXICO

CITY           SKY/WX    TMP DP  RH WIND       PRES   REMARKS
AGUASCALIENTES MOSUNNY   68  27  21 NE6       30.31F
COLIMA         PTSUNNY   86  48  26 CALM      30.02F
DEL BAJIO      MOSUNNY   68  34  28 NW5       30.33F
GUADALAJARA    MOSUNNY   72  34  25 S10       30.22F
MANZANILLO     MOSUNNY   86  77  74 SW14      29.88F HX  97
MAZATLAN       SUNNY     86  64  48 SW12      29.95F
P. VALLARTA    MOSUNNY   82  66  57 SW10      29.93F
URUAPAN        PTSUNNY   73  46  38 S9        30.19F
ZACATECAS      SUNNY     64  32  29 E12G23    30.35F

CENTRAL MEXICO

CITY           SKY/WX    TMP DP  RH WIND       PRES   REMARKS
CUERNAVACA     CLOUDY    73  36  25 CALM      30.22F
MEXICO CITY    CLOUDY    57  32  38 VRB3      30.39F
MORELIA        PTSUNNY   64  39  39 E6        30.28F
POZA RICA      CLOUDY    70  54  56 CALM      30.37F
PUEBLA         CLOUDY    57  32  38 N6        30.37F
QUERETARO      MOSUNNY   66  37  34 SE12      30.37F
S. LUIS POTOSI SUNNY     63  27  25 NE17      30.36
TAMPICO        SUNNY     73  41  31 SE13      30.32F
TOLUCA         PTSUNNY   63  34  34 E7        30.39S

SOUTHERN MEXICO

CITY           SKY/WX    TMP DP  RH WIND       PRES   REMARKS
ACAPULCO       MOSUNNY   84  73  70 SW9       29.91F HX  91
B. DE HUATULCO SUNNY     90  72  55 CALM      29.96F HX  96
OAXACA         MOSUNNY   70  34  26 NW9       30.28F
P. ESCONDIDO   MOSUNNY   82  63  51 W9        30.03S
VERACRUZ       PTSUNNY   72  57  60 NE12      30.33F
ZIHUATANEJO    PTSUNNY   86  73  66 SW6       29.93F HX  93

YUCATAN PENINSULA

CITY           SKY/WX    TMP DP  RH WIND       PRES   REMARKS
CAMPECHE       PTSUNNY   70  55  60 N21       30.25S
CANCUN         PTSUNNY   72  55  56 NW8       30.25R
CHETUMAL       PTSUNNY   75  68  78 NW12      30.24S
CD. DEL CARMEN CLOUDY    73  59  60 N8        30.28S
COZUMEL        PTSUNNY   70  54  56 N7        30.24S
MERIDA         PTSUNNY   72  50  46 N12       30.28R
MINATITLAN     CLOUDY    72  68  88 N14       30.24F
TAPACHULA      MOSUNNY   84  72  65 W17       29.95F
TUX. GUTIERREZ SUNNY     73  48  40 NW16      30.15F
VILLAHERMOSA   CLOUDY    73  57  56 N7        30.29S

CENTRAL AMERICA

CITY           SKY/WX    TMP DP  RH WIND       PRES   REMARKS
BELIZE CITY    MOSUNNY   77  55  47 NW9       30.23R

CARIBBEAN

CITY           SKY/WX    TMP DP  RH WIND       PRES   REMARKS
CURACAO          N/A     81  73  78 E14       29.94R
KINGSTON       MOSUNNY   84  72  65 N12       30.00S
NASSAU         PTSUNNY  N/A N/A N/A W6        30.19R
SAN JUAN       PTCLDY    81  70  69 E12       30.06R
SANTO DOMINGO  PTCLDY    82  73  74 S7        30.03R
ST. CROIX      PTCLDY    81  68  65 E8        30.07R
ST. KITTS      PTCLDY    79  68  69 E12       30.06R
ST. MAARTEN    PTCLDY    79  70  73 E12       30.06
ST. THOMAS     MOCLDY    79  70  73 SE9       30.07R

$$





USA.gov is the U.S. government's official web portal to all federal, state and local government web resources and services.